SL-14 DEB, 45337

Orbit data source: Space-Track

SL-14 DEB, 45337 is space debris in LEO originally from a launch on Thu, 15 Aug 1991 UTC launched from the Plesetsk Missile And Space Complex (PKMTR). Debris objects in space refer to the collection of defunct objects orbiting the Earth. Examples of debris include non-operational satellites, rocket bodies, and fragments generated from explosions, collisions, or faulty payload assembly.

Loading next visibility...
Identifier
45337, 1991-056CB
Orbit
LEO
Country
Flag of CISCIS
Related business
Manufacturer
Unknown
Mission
Spacecraft
Bus & Motor
Unknown
Mass
Unknown
Launch date (UTC)
1991-08-15 (35 years ago)
Launch vehicle
Unknown
Launch site
Plesetsk Missile And Space Complex (PKMTR)
Object type
Payload
Rocket body
Debris
Shape & HBR
Unknown shape, 0.1 m
Radar Cross Section
Small (<0.1 m²)

Expand to show TLE details & history
Last TLE update: 3 days ago

TLE from 3 days ago
0 SL-14 DEB
1 45337U 91056CB  26123.59244796 -.00000142  00000-0 -42260-3 0  9999
2 45337  82.5790 189.6490 0047324  89.2745 271.3797 13.13072688295503
Epoch: 2026-05-03T14:13Z
TLE epoch observation values (Epoch: 2026-05-03T14:13:07.503Z)
Latitude
-0.00007°
Longitude
114.87395°
Altitude
1,213.404 km
Speed
7.248 km/s
True Right ascension
12h 38m 35s
True Declination
0° 00' 00"
Sunlit
Object was in full shadow at epoch
Visualization orbit readout
Latitude
Unknown
Longitude
Unknown
Altitude
Unknown
Speed
Unknown
Apparent Right ascension
Unknown
Apparent Declination
Unknown
Sunlit
N/A
Visualization observer readout
Local Sidereal Time
03:55:16
Azimuth
Unknown
Elevation
Unknown
Doppler factor
Unknown
Orbital elements
Apogee altitude
1,244.448 km
Perigee altitude
1,172.642 km
Semi-major axis
7,586.682 km
Eccentricity
0.00473
Inclination
82.579°
RAAN
189.649°
Arg. of periapsis
89.2745°
True anomaly
270.83749°
Mean anomaly
271.3797°
Eccentric anomaly
271.1086°
Mean motion
3.28447 °/min
Orbital period
109.61 mins
BSTAR
-0.0004226
Loading maneuver chart data...
Computing Atmospheric mass density...
Loading historical data...
Loading historical data...
Loading historical data...
Loading historical data...
Loading historical data...
Loading historical data...
Loading historical data...

Documentation

Showing up to 5 results
|